{"data":{"norad_id":68086,"epoch":"2026-05-24T22:44:23.930016Z","epoch_age_seconds":78958,"freshness":"FRESH","line1":"1 68086U 26042T   26144.94749919  .00010704  00000+0  32748-3 0  9999","line2":"2 68086  53.1590 182.1327 0001327  80.1668 279.9484 15.34400430 14012","mean_motion":15.3440043,"eccentricity":0.0001327,"inclination_deg":53.159,"raan_deg":182.1327,"arg_perigee_deg":80.1668,"mean_anomaly_deg":279.9484,"bstar":0.00032748,"rev_number":1401,"period_min":93.847731781462,"perigee_km":461.79418282651,"apogee_km":463.60974148706,"semimajor_km":6840.8389621568,"source":"CELESTRAK","updated_at":"2026-05-25T13:38:21.820849Z"}}